| time (UTC) | temp C | wind direction | speed KPH | gust KPH | rain 1hr cm | rain 24hr cm | rain mn cm | humidity % | barometer mb |
| 20260906174542 | -17 | 74 | 0.0 | 6.4 | 0.00 | 0.15 | 0.00 | 1015.0 | |
| 20260906174040 | -17 | 110 | 0.0 | 8.0 | 0.00 | 0.15 | 0.00 | 1014.9 | |
| 20260906173543 | -17 | 101 | 3.2 | 8.0 | 0.00 | 0.15 | 0.00 | 1014.9 | |
| 20260906173039 | -17 | 141 | 1.6 | 4.8 | 0.00 | 0.15 | 0.00 | 1015.0 | |
| 20260906172537 | -17 | 104 | 1.6 | 4.8 | 0.00 | 0.15 | 0.00 | 1014.9 | |
| 20260906172036 | -17 | 98 | 1.6 | 4.8 | 0.00 | 0.15 | 0.00 | 1015.1 | |
| 20260906171533 | -17 | 112 | 0.0 | 4.8 | 0.00 | 0.15 | 0.00 | 1015.1 | |
| 20260906171032 | -17 | 355 | 1.6 | 3.2 | 0.00 | 0.15 | 0.00 | 1015.1 | |
| 20260906170531 | -17 | 329 | 0.0 | 6.4 | 0.00 | 0.15 | 0.00 | 1015.1 | |
| 20260906170103 | -17 | 333 | 1.6 | 6.4 | 0.00 | 0.15 | 0.00 | 1015.1 | |
| 20260906165527 | -17 | 88 | 1.6 | 4.8 | 0.00 | 1.55 | 0.00 | 1015.2 | |
| 20260906165030 | -17 | 133 | 1.6 | 4.8 | 0.00 | 1.55 | 0.00 | 1015.2 | |
| 20260906164524 | -17 | 5 | 1.6 | 9.7 | 0.00 | 1.55 | 0.00 | 1015.2 | |
| 20260906164024 | -17 | 68 | 0.0 | 3.2 | 0.00 | 1.55 | 0.00 | 1015.2 | |
| 20260906163523 | -17 | 65 | 0.0 | 6.4 | 0.00 | 1.55 | 0.00 | 1015.1 | |
| 20260906163020 | -17 | 360 | 1.6 | 6.4 | 0.00 | 1.55 | 0.00 | 1015.2 | |
| 20260906162522 | -17 | 360 | 1.6 | 6.4 | 0.00 | 1.55 | 0.00 | 1015.2 | |
| 20260906162021 | -17 | 17 | 1.6 | 4.8 | 0.00 | 1.55 | 0.00 | 1015.3 | |
| 20260906161516 | -17 | 12 | 1.6 | 4.8 | 0.00 | 1.55 | 0.00 | 1015.2 | |
| 20260906161014 | -17 | 82 | 1.6 | 4.8 | 0.00 | 1.55 | 0.00 | 1015.1 | |
| 20260906160513 | -17 | 90 | 0.0 | 4.8 | 0.00 | 1.55 | 0.00 | 1015.2 | |
| 20260906160010 | -17 | 355 | 0.0 | 4.8 | 0.00 | 1.55 | 0.00 | 1015.3 | |
| 20260906155516 | -17 | 22 | 0.0 | 4.8 | 0.00 | 1.55 | 0.00 | 1015.4 | |
| 20260906155008 | -17 | 206 | 0.0 | 4.8 | 0.00 | 1.55 | 0.00 | 1015.4 | |
| 20260906154517 | -17 | 11 | 1.6 | 6.4 | 0.00 | 1.55 | 0.00 | 1015.4 | |
| 20260906154006 | -17 | 53 | 1.6 | 6.4 | 0.00 | 1.55 | 0.00 | 1015.5 | |
| 20260906153505 | -17 | 360 | 1.6 | 6.4 | 0.00 | 1.55 | 0.00 | 1015.4 | |
| 20260906153009 | -17 | 113 | 1.6 | 4.8 | 0.00 | 1.55 | 0.00 | 1015.4 | |
| 20260906152503 | -17 | 14 | 1.6 | 8.0 | 0.00 | 1.55 | 0.00 | 1015.4 | |
| 20260906152100 | -17 | 336 | 0.0 | 8.0 | 0.00 | 1.55 | 0.00 | 1015.3 | |
| 20260906151611 | -17 | 326 | 1.6 | 6.4 | 0.00 | 1.55 | 0.00 | 1015.2 | |
| 20260906151056 | -17 | 45 | 0.0 | 4.8 | 0.00 | 1.55 | 0.00 | 1015.3 | |
| 20260906150556 | -17 | 130 | 0.0 | 3.2 | 0.00 | 1.55 | 0.00 | 1015.3 | |
| 20260906150058 | -17 | 111 | 0.0 | 3.2 | 0.00 | 1.55 | 0.00 | 1015.2 | |
| 20260906145553 | -17 | 111 | 0.0 | 3.2 | 0.00 | 1.55 | 0.00 | 1015.2 | |
| 20260906145051 | -17 | 109 | 0.0 | 3.2 | 0.00 | 1.55 | 0.00 | 1015.2 | |
| 20260906144550 | -17 | 94 | 0.0 | 3.2 | 0.00 | 1.55 | 0.00 | 1015.2 | |
| 20260906144047 | -17 | 94 | 0.0 | 3.2 | 0.00 | 1.55 | 0.00 | 1015.3 | |
| 20260906143547 | -17 | 117 | 0.0 | 3.2 | 0.00 | 1.55 | 0.00 | 1015.2 | |
| 20260906143100 | -17 | 104 | 0.0 | 3.2 | 0.00 | 1.55 | 0.00 | 1015.2 | |
| 20260906142544 | -17 | 79 | 0.0 | 0.0 | 0.00 | 1.55 | 0.00 | 1015.2 | |
| 20260906142043 | -17 | 92 | 0.0 | 3.2 | 0.00 | 1.55 | 0.00 | 1015.3 | |
| 20260906141542 | -17 | 92 | 0.0 | 3.2 | 0.00 | 1.55 | 0.00 | 1015.3 | |
| 20260906141039 | -17 | 92 | 0.0 | 1.6 | 0.00 | 1.55 | 0.00 | 1015.3 | |
| 20260906140537 | -17 | 123 | 0.0 | 3.2 | 0.00 | 1.55 | 0.00 | 1015.0 | |
| 20260906140044 | -17 | 142 | 0.0 | 3.2 | 0.00 | 1.55 | 0.00 | 1015.0 | |
| 20260906135536 | -17 | 336 | 0.0 | 0.0 | 0.00 | 1.55 | 0.00 | 1015.0 | |
| 20260906135038 | -17 | 336 | 0.0 | 1.6 | 0.00 | 1.55 | 0.00 | 1015.0 | |
| 20260906134536 | -17 | 336 | 0.0 | 1.6 | 0.00 | 1.55 | 0.00 | 1015.0 | |
| 20260906134032 | -17 | 336 | 0.0 | 4.8 | 0.00 | 1.55 | 0.00 | 1015.0 | |
| 20260906133529 | -17 | 336 | 0.0 | 3.2 | 0.00 | 1.55 | 0.00 | 1014.9 | |
| 20260906133028 | -17 | 106 | 0.0 | 3.2 | 0.00 | 1.55 | 0.00 | 1014.8 | |
| 20260906132527 | -17 | 100 | 0.0 | 3.2 | 0.00 | 1.55 | 0.00 | 1014.6 | |
| 20260906132026 | -17 | 51 | 0.0 | 4.8 | 0.00 | 1.55 | 0.00 | 1014.7 | |
| 20260906131523 | -17 | 320 | 0.0 | 4.8 | 0.00 | 1.55 | 0.00 | 1014.4 | |
| 20260906131021 | -17 | 101 | 0.0 | 0.0 | 0.00 | 1.55 | 0.00 | 1014.4 | |
| 20260906130520 | -17 | 338 | 0.0 | 0.0 | 0.00 | 1.55 | 0.00 | 1014.5 | |
| 20260906130021 | -17 | 344 | 0.0 | 0.0 | 0.00 | 1.55 | 0.00 | 1014.6 | |
| 20260906125517 | -17 | 342 | 0.0 | 3.2 | 0.00 | 1.55 | 0.00 | 1014.7 | |
| 20260906125016 | -17 | 342 | 0.0 | 3.2 | 0.00 | 1.55 | 0.00 | 1014.8 | |
| 20260906124518 | -17 | 103 | 0.0 | 0.0 | 0.00 | 1.55 | 0.00 | 1014.9 | |
| 20260906124013 | -17 | 103 | 0.0 | 1.6 | 0.00 | 1.55 | 0.00 | 1014.8 | |
| 20260906123511 | -17 | 103 | 0.0 | 1.6 | 0.00 | 1.55 | 0.00 | 1014.8 | |
| 20260906123010 | -17 | 107 | 0.0 | 1.6 | 0.00 | 1.55 | 0.00 | 1014.7 | |
| 20260906122513 | -17 | 112 | 0.0 | 1.6 | 0.00 | 1.55 | 0.00 | 1014.7 | |
| 20260906122007 | -17 | 110 | 0.0 | 1.6 | 0.00 | 1.55 | 0.00 | 1014.5 | |
| 20260906121506 | -17 | 117 | 0.0 | 1.6 | 0.00 | 1.55 | 0.00 | 1014.5 | |
| 20260906121004 | -17 | 107 | 0.0 | 0.0 | 0.00 | 1.55 | 0.00 | 1014.3 | |
| 20260906120503 | -17 | 107 | 0.0 | 0.0 | 0.00 | 1.55 | 0.00 | 1014.3 | |
| 20260906120001 | -17 | 107 | 0.0 | 0.0 | 0.00 | 1.55 | 0.00 | 1014.2 | |
| 20260906115600 | -17 | 107 | 0.0 | 1.6 | 0.00 | 1.55 | 0.00 | 1014.3 | |
| 20260906115059 | -17 | 107 | 0.0 | 1.6 | 0.00 | 1.55 | 0.00 | 1014.2 | |
| 20260906114604 | -17 | 107 | 0.0 | 1.6 | 0.00 | 1.55 | 0.00 | 1014.1 | |
| 20260906114056 | -17 | 109 | 0.0 | 1.6 | 0.00 | 1.55 | 0.00 | 1014.0 | |
| 20260906113554 | -17 | 121 | 0.0 | 0.0 | 0.00 | 1.55 | 0.00 | 1014.1 | |
| 20260906113053 | -17 | 121 | 0.0 | 0.0 | 0.00 | 1.55 | 0.00 | 1013.9 | |
| 20260906112550 | -17 | 121 | 0.0 | 1.6 | 0.00 | 1.55 | 0.00 | 1013.9 | |
| 20260906112050 | -17 | 121 | 0.0 | 1.6 | 0.00 | 1.55 | 0.00 | 1013.8 | |
| 20260906111549 | -17 | 123 | 0.0 | 1.6 | 0.00 | 1.55 | 0.00 | 1013.6 | |
| 20260906111046 | -17 | 123 | 0.0 | 1.6 | 0.00 | 1.55 | 0.00 | 1013.6 | |
| 20260906110545 | -17 | 123 | 0.0 | 1.6 | 0.00 | 1.55 | 0.00 | 1013.6 | |
| 20260906110043 | -17 | 109 | 0.0 | 0.0 | 0.00 | 1.55 | 0.00 | 1013.6 | |
| 20260906105542 | -17 | 109 | 0.0 | 0.0 | 0.00 | 1.55 | 0.00 | 1013.5 | |
| 20260906105040 | -17 | 109 | 0.0 | 1.6 | 0.00 | 1.55 | 0.00 | 1013.6 | |
| 20260906104539 | -17 | 111 | 0.0 | 1.6 | 0.00 | 1.55 | 0.00 | 1013.5 | |
| 20260906104037 | -17 | 103 | 0.0 | 1.6 | 0.00 | 1.55 | 0.00 | 1013.5 | |
| 20260906103537 | -17 | 101 | 0.0 | 1.6 | 0.00 | 1.55 | 0.00 | 1013.5 | |
| 20260906103035 | -17 | 103 | 0.0 | 1.6 | 0.00 | 1.55 | 0.00 | 1013.4 | |
| 20260906102534 | -17 | 110 | 0.0 | 0.0 | 0.00 | 1.55 | 0.00 | 1013.3 | |
| 20260906102032 | -17 | 110 | 0.0 | 0.0 | 0.00 | 1.55 | 0.00 | 1013.2 | |
| 20260906101531 | -17 | 110 | 0.0 | 0.0 | 0.00 | 1.55 | 0.00 | 1013.2 | |
| 20260906101028 | -17 | 110 | 0.0 | 1.6 | 0.00 | 1.55 | 0.00 | 1013.1 | |
| 20260906100528 | -17 | 110 | 0.0 | 1.6 | 0.00 | 1.55 | 0.00 | 1013.0 | |
| 20260906100027 | -17 | 101 | 0.0 | 1.6 | 0.00 | 1.55 | 0.00 | 1013.0 | |
| 20260906095524 | -17 | 47 | 0.0 | 1.6 | 0.00 | 1.55 | 0.00 | 1013.0 | |
| 20260906095026 | -17 | 109 | 0.0 | 0.0 | 0.00 | 1.55 | 0.00 | 1012.9 | |
| 20260906094522 | -17 | 109 | 0.0 | 0.0 | 0.00 | 1.55 | 0.00 | 1012.8 | |
| 20260906094020 | -17 | 109 | 0.0 | 0.0 | 0.00 | 1.55 | 0.00 | 1012.8 | |
| 20260906093521 | -17 | 109 | 0.0 | 0.0 | 0.00 | 1.55 | 0.00 | 1012.8 | |
| 20260906093022 | -17 | 109 | 0.0 | 1.6 | 0.00 | 1.55 | 0.00 | 1012.7 | |
| 20260906092516 | -17 | 109 | 0.0 | 1.6 | 0.00 | 1.55 | 0.00 | 1012.8 | |
| 20260906092014 | -17 | 118 | 0.0 | 1.6 | 0.00 | 1.55 | 0.00 | 1012.6 | |
| 20260906091516 | -17 | 98 | 0.0 | 1.6 | 0.00 | 1.55 | 0.00 | 1012.7 | |
| 20260906091012 | -17 | 128 | 0.0 | 0.0 | 0.00 | 1.55 | 0.00 | 1012.5 | |
| 20260906090510 | -17 | 128 | 0.0 | 0.0 | 0.00 | 1.55 | 0.00 | 1012.5 | |
| 20260906090009 | -17 | 128 | 0.0 | 0.0 | 0.00 | 1.55 | 0.00 | 1012.6 | |
| 20260906085508 | -17 | 128 | 0.0 | 0.0 | 0.00 | 1.55 | 0.00 | 1012.5 | |
| 20260906085006 | -17 | 128 | 0.0 | 1.6 | 0.00 | 1.55 | 0.00 | 1012.5 | |
| 20260906084504 | -17 | 128 | 0.0 | 1.6 | 0.00 | 1.55 | 0.00 | 1012.3 | |
| 20260906084005 | -17 | 119 | 0.0 | 1.6 | 0.00 | 1.55 | 0.00 | 1012.3 | |
| 20260906083501 | -17 | 80 | 0.0 | 0.0 | 0.00 | 1.55 | 0.00 | 1012.3 | |
| 20260906083103 | -17 | 80 | 0.0 | 0.0 | 0.00 | 1.55 | 0.00 | 1012.3 | |
| 20260906082558 | -17 | 80 | 0.0 | 0.0 | 0.00 | 1.55 | 0.00 | 1012.4 | |
| 20260906082057 | -17 | 80 | 0.0 | 0.0 | 0.00 | 1.55 | 0.00 | 1012.4 | |
| 20260906081558 | -17 | 80 | 0.0 | 0.0 | 0.00 | 1.55 | 0.00 | 1012.4 | |
| 20260906081055 | -17 | 80 | 0.0 | 1.6 | 0.00 | 1.55 | 0.00 | 1012.4 | |
| 20260906080554 | -17 | 80 | 0.0 | 1.6 | 0.00 | 1.55 | 0.00 | 1012.3 | |
| 20260906080052 | -17 | 103 | 0.0 | 1.6 | 0.00 | 1.55 | 0.00 | 1012.2 | |
| 20260906075549 | -17 | 121 | 0.0 | 1.6 | 0.00 | 1.55 | 0.00 | 1012.3 | |
| 20260906075048 | -17 | 102 | 0.0 | 0.0 | 0.00 | 1.55 | 0.00 | 1012.1 | |
| 20260906074551 | -17 | 102 | 0.0 | 0.0 | 0.00 | 1.55 | 0.00 | 1012.2 | |
| 20260906074045 | -17 | 102 | 0.0 | 0.0 | 0.00 | 1.55 | 0.00 | 1012.2 | |
| 20260906073544 | -17 | 102 | 0.0 | 0.0 | 0.00 | 1.55 | 0.00 | 1012.2 | |
| 20260906073043 | -17 | 102 | 0.0 | 1.6 | 0.00 | 1.55 | 0.00 | 1012.2 | |
| 20260906072541 | -17 | 107 | 0.0 | 1.6 | 0.00 | 1.55 | 0.00 | 1012.1 | |
| 20260906072040 | -17 | 140 | 0.0 | 1.6 | 0.00 | 1.55 | 0.00 | 1012.0 | |
| 20260906071538 | -17 | 119 | 0.0 | 1.6 | 0.00 | 1.55 | 0.00 | 1012.0 | |
| 20260906071036 | -17 | 126 | 0.0 | 0.0 | 0.00 | 1.55 | 0.00 | 1011.8 | |
| 20260906070536 | -17 | 126 | 0.0 | 0.0 | 0.00 | 1.55 | 0.00 | 1012.0 | |
| 20260906070034 | -17 | 126 | 0.0 | 0.0 | 0.00 | 1.55 | 0.00 | 1012.0 | |
| 20260906065532 | -17 | 126 | 0.0 | 0.0 | 0.00 | 1.55 | 0.00 | 1012.0 | |
| 20260906065031 | -17 | 126 | 0.0 | 3.2 | 0.00 | 1.55 | 0.00 | 1011.9 | |
| 20260906064529 | -17 | 121 | 0.0 | 3.2 | 0.00 | 1.55 | 0.00 | 1012.1 | |
| 20260906064028 | -17 | 121 | 0.0 | 1.6 | 0.00 | 1.55 | 0.00 | 1012.1 | |
| 20260906063528 | -17 | 111 | 0.0 | 0.0 | 0.00 | 1.55 | 0.00 | 1012.2 | |
| 20260906063027 | -17 | 111 | 0.0 | 0.0 | 0.00 | 1.55 | 0.00 | 1012.3 | |
| 20260906062522 | -17 | 111 | 0.0 | 0.0 | 0.00 | 1.55 | 0.00 | 1012.3 | |
| 20260906062022 | -17 | 111 | 0.0 | 0.0 | 0.00 | 1.55 | 0.00 | 1012.2 | |
| 20260906061519 | -17 | 111 | 0.0 | 1.6 | 0.00 | 1.55 | 0.00 | 1012.3 | |
| 20260906061019 | -17 | 111 | 0.0 | 1.6 | 0.00 | 1.55 | 0.00 | 1012.3 | |
| 20260906060517 | -17 | 109 | 0.0 | 1.6 | 0.00 | 1.55 | 0.00 | 1012.3 | |
| 20260906060015 | -17 | 104 | 0.0 | 1.6 | 0.00 | 1.55 | 0.00 | 1012.4 | |
| 20260906055514 | -17 | 149 | 0.0 | 0.0 | 0.00 | 1.55 | 0.00 | 1012.3 | |
| 20260906055013 | -17 | 149 | 0.0 | 0.0 | 0.00 | 1.55 | 0.00 | 1012.4 | |
| 20260906054511 | -17 | 149 | 0.0 | 0.0 | 0.00 | 1.55 | 0.00 | 1012.4 | |
| 20260906054009 | -17 | 149 | 0.0 | 1.6 | 0.00 | 1.55 | 0.00 | 1012.5 | |
| 20260906053512 | -17 | 149 | 0.0 | 1.6 | 0.00 | 1.55 | 0.00 | 1012.3 | |
| 20260906053006 | -17 | 69 | 0.0 | 1.6 | 0.00 | 1.55 | 0.00 | 1012.2 | |
| 20260906052505 | -17 | 103 | 0.0 | 1.6 | 0.00 | 1.55 | 0.00 | 1012.3 | |
| 20260906052007 | -17 | 98 | 0.0 | 0.0 | 0.00 | 1.55 | 0.00 | 1012.5 | |
| 20260906051504 | -17 | 98 | 0.0 | 0.0 | 0.00 | 1.55 | 0.00 | 1012.7 | |
| 20260906051001 | -17 | 98 | 0.0 | 1.6 | 0.00 | 1.55 | 0.00 | 1012.7 | |
| 20260906050600 | -17 | 98 | 0.0 | 1.6 | 0.00 | 1.55 | 0.00 | 1012.6 | |
| 20260906050058 | -17 | 98 | 0.0 | 1.6 | 0.00 | 1.55 | 0.00 | 1012.7 | |
| 20260906045556 | -17 | 115 | 0.0 | 1.6 | 0.00 | 1.55 | 0.00 | 1012.6 | |
| 20260906045054 | -17 | 118 | 0.0 | 0.0 | 0.00 | 1.55 | 0.00 | 1012.6 | |
| 20260906044554 | -17 | 118 | 0.0 | 0.0 | 0.00 | 1.55 | 0.00 | 1012.4 | |
| 20260906044053 | -17 | 118 | 0.0 | 0.0 | 0.00 | 1.55 | 0.00 | 1012.4 | |
| 20260906043551 | -17 | 118 | 0.0 | 1.6 | 0.00 | 1.55 | 0.00 | 1012.4 | |
| 20260906043055 | -17 | 118 | 0.0 | 1.6 | 0.00 | 1.55 | 0.00 | 1012.5 | |
| 20260906042547 | -17 | 107 | 0.0 | 1.6 | 0.00 | 1.55 | 0.00 | 1012.7 | |
| 20260906042046 | -17 | 336 | 0.0 | 1.6 | 0.00 | 1.55 | 0.00 | 1012.7 | |
| 20260906041545 | -17 | 121 | 0.0 | 0.0 | 0.00 | 1.55 | 0.00 | 1012.8 | |
| 20260906041044 | -17 | 121 | 0.0 | 0.0 | 0.00 | 1.55 | 0.00 | 1012.8 | |
| 20260906040545 | -17 | 121 | 0.0 | 1.6 | 0.00 | 1.55 | 0.00 | 1012.7 | |
| 20260906040041 | -17 | 121 | 0.0 | 1.6 | 0.00 | 1.55 | 0.00 | 1012.6 | |
| 20260906035541 | -17 | 80 | 0.0 | 1.6 | 0.00 | 1.55 | 1.55 | 1012.7 | |
| 20260906035040 | -17 | 46 | 0.0 | 1.6 | 0.00 | 1.55 | 1.55 | 1012.8 | |
| 20260906034540 | -17 | 87 | 0.0 | 0.0 | 0.00 | 1.55 | 1.55 | 1012.8 | |
| 20260906034040 | -17 | 87 | 0.0 | 0.0 | 0.00 | 1.55 | 1.55 | 1012.7 | |
| 20260906033541 | -17 | 87 | 0.0 | 1.6 | 0.00 | 1.55 | 1.55 | 1012.6 | |
| 20260906033047 | -17 | 87 | 0.0 | 1.6 | 0.00 | 1.55 | 1.55 | 1012.5 | |
| 20260906032539 | -17 | 105 | 0.0 | 1.6 | 0.00 | 1.55 | 1.55 | 1012.5 | |
| 20260906032040 | -17 | 107 | 0.0 | 1.6 | 0.00 | 1.55 | 1.55 | 1012.8 | |
| 20260906031540 | -17 | 101 | 0.0 | 0.0 | 0.00 | 1.55 | 1.55 | 1012.8 | |
| 20260906031039 | -17 | 101 | 0.0 | 0.0 | 0.00 | 1.55 | 1.55 | 1012.6 | |
| 20260906030539 | -17 | 101 | 0.0 | 1.6 | 0.00 | 1.55 | 1.55 | 1012.6 | |
| 20260906030043 | -17 | 101 | 0.0 | 1.6 | 0.00 | 1.55 | 1.55 | 1012.6 | |
| 20260906025537 | -17 | 98 | 0.0 | 1.6 | 0.00 | 1.55 | 1.55 | 1012.7 | |
| 20260906025038 | -17 | 94 | 0.0 | 1.6 | 0.00 | 1.55 | 1.55 | 1012.8 | |
| 20260906024544 | -17 | 84 | 0.0 | 0.0 | 0.00 | 1.55 | 1.55 | 1012.8 | |
| 20260906024037 | -17 | 84 | 0.0 | 0.0 | 0.00 | 1.55 | 1.55 | 1012.7 | |
| 20260906023542 | -17 | 84 | 0.0 | 1.6 | 0.00 | 1.55 | 1.55 | 1012.6 | |
| 20260906023048 | -17 | 108 | 0.0 | 1.6 | 0.00 | 1.55 | 1.55 | 1012.7 | |
| 20260906022536 | -17 | 113 | 0.0 | 1.6 | 0.00 | 1.55 | 1.55 | 1012.7 | |
| 20260906022038 | -17 | 86 | 0.0 | 1.6 | 0.00 | 1.55 | 1.55 | 1012.5 | |
| 20260906021537 | -17 | 23 | 0.0 | 0.0 | 0.00 | 1.55 | 1.55 | 1012.6 | |
| 20260906021036 | -17 | 23 | 0.0 | 1.6 | 0.00 | 1.55 | 1.55 | 1012.7 | |
| 20260906020536 | -17 | 23 | 0.0 | 1.6 | 0.00 | 1.55 | 1.55 | 1012.5 | |
| 20260906020046 | -17 | 76 | 0.0 | 1.6 | 0.00 | 1.55 | 1.55 | 1012.5 | |
| 20260906015535 | -17 | 100 | 0.0 | 1.6 | 0.00 | 1.55 | 1.55 | 1012.6 | |
| 20260906015035 | -17 | 104 | 0.0 | 0.0 | 0.00 | 1.55 | 1.55 | 1012.7 | |
| 20260906014536 | -17 | 104 | 0.0 | 0.0 | 0.00 | 1.55 | 1.55 | 1012.7 | |
| 20260906014040 | -17 | 104 | 0.0 | 1.6 | 0.00 | 1.55 | 1.55 | 1012.6 | |
| 20260906013537 | -17 | 107 | 0.0 | 1.6 | 0.00 | 1.55 | 1.55 | 1012.4 | |
| 20260906013047 | -17 | 94 | 0.0 | 1.6 | 0.00 | 1.55 | 1.55 | 1012.4 | |
| 20260906012538 | -17 | 49 | 0.0 | 1.6 | 0.00 | 1.55 | 1.55 | 1012.3 | |
| 20260906012034 | -17 | 105 | 0.0 | 0.0 | 0.00 | 1.55 | 1.55 | 1012.3 | |
| 20260906011542 | -17 | 105 | 0.0 | 0.0 | 0.00 | 1.55 | 1.55 | 1012.4 | |
| 20260906011036 | -17 | 105 | 0.0 | 3.2 | 0.00 | 1.55 | 1.55 | 1012.2 | |
| 20260906010534 | -17 | 117 | 0.0 | 3.2 | 0.00 | 1.55 | 1.55 | 1012.0 | |
| 20260906010039 | -17 | 111 | 1.6 | 3.2 | 0.00 | 1.55 | 1.55 | 1011.8 | |
| 20260906005634 | -17 | 129 | 1.6 | 3.2 | 0.00 | 1.55 | 1.55 | 1012.0 | |
| 20260906005034 | -17 | 122 | 0.0 | 0.0 | 0.00 | 1.55 | 1.55 | 1011.9 | |
| 20260906004534 | -17 | 122 | 0.0 | 3.2 | 0.00 | 1.55 | 1.55 | 1011.8 | |
| 20260906004036 | -17 | 122 | 0.0 | 3.2 | 0.00 | 1.55 | 1.55 | 1011.8 | |
| 20260906003532 | -17 | 111 | 0.0 | 1.6 | 0.00 | 1.55 | 1.55 | 1011.8 | |
| 20260906003035 | -17 | 95 | 0.0 | 1.6 | 0.00 | 1.55 | 1.55 | 1011.8 | |
| 20260906002531 | -17 | 120 | 0.0 | 0.0 | 0.00 | 1.55 | 1.55 | 1011.7 | |
| 20260906002035 | -17 | 120 | 0.0 | 1.6 | 0.00 | 1.55 | 1.55 | 1011.5 | |
| 20260906001535 | -17 | 120 | 0.0 | 3.2 | 0.00 | 1.55 | 1.55 | 1011.5 | |
| 20260906001031 | -17 | 100 | 0.0 | 3.2 | 0.00 | 1.55 | 1.55 | 1011.4 | |
| 20260906000535 | -17 | 115 | 0.0 | 3.2 | 0.00 | 1.55 | 1.55 | 1011.3 | |
| 20260906000047 | -17 | 90 | 0.0 | 0.0 | 0.00 | 1.55 | 1.55 | 1011.2 | |
| 20260905235532 | -17 | 90 | 0.0 | 1.6 | 0.00 | 1.73 | 1.55 | 1011.3 | |
| 20260905235031 | -17 | 101 | 0.0 | 1.6 | 0.00 | 1.73 | 1.55 | 1011.3 | |
| 20260905234530 | -17 | 97 | 0.0 | 1.6 | 0.00 | 1.73 | 1.55 | 1011.3 | |
| 20260905234031 | -17 | 68 | 0.0 | 1.6 | 0.00 | 1.73 | 1.55 | 1011.2 | |
| 20260905233532 | -17 | 125 | 0.0 | 0.0 | 0.00 | 1.73 | 1.55 | 1011.1 | |
| 20260905233029 | -17 | 125 | 0.0 | 3.2 | 0.00 | 1.73 | 1.55 | 1010.9 | |
| 20260905232528 | -17 | 125 | 1.6 | 3.2 | 0.00 | 1.73 | 1.55 | 1010.8 | |
| 20260905232027 | -17 | 126 | 1.6 | 3.2 | 0.00 | 1.73 | 1.55 | 1010.9 | |
| 20260905231528 | -17 | 124 | 0.0 | 3.2 | 0.00 | 1.73 | 1.55 | 1011.1 | |
| 20260905231027 | -17 | 111 | 0.0 | 1.6 | 0.00 | 1.73 | 1.55 | 1011.3 | |
| 20260905230526 | -17 | 112 | 0.0 | 1.6 | 0.00 | 1.73 | 1.55 | 1011.3 | |
| 20260905230026 | -17 | 112 | 0.0 | 1.6 | 0.00 | 1.73 | 1.55 | 1011.4 | |
| 20260905225527 | -17 | 75 | 0.0 | 3.2 | 0.00 | 2.08 | 1.55 | 1011.3 | |
| 20260905225023 | -17 | 107 | 0.0 | 3.2 | 0.00 | 2.08 | 1.55 | 1011.1 | |
| 20260905224522 | -17 | 126 | 0.0 | 3.2 | 0.00 | 2.08 | 1.55 | 1011.4 | |
| 20260905224021 | -17 | 123 | 0.0 | 1.6 | 0.00 | 2.08 | 1.55 | 1011.4 | |
| 20260905223519 | -17 | 106 | 0.0 | 1.6 | 0.00 | 2.08 | 1.55 | 1011.2 | |
| 20260905223018 | -17 | 106 | 0.0 | 1.6 | 0.00 | 2.08 | 1.55 | 1011.1 | |
| 20260905222516 | -17 | 85 | 0.0 | 1.6 | 0.00 | 2.08 | 1.55 | 1011.1 | |
| 20260905222014 | -17 | 95 | 0.0 | 1.6 | 0.00 | 2.08 | 1.55 | 1011.0 | |
| 20260905221513 | -17 | 107 | 0.0 | 1.6 | 0.00 | 2.08 | 1.55 | 1011.1 | |
| 20260905221012 | -17 | 125 | 0.0 | 1.6 | 0.00 | 2.08 | 1.55 | 1011.1 | |
| 20260905220513 | -17 | 138 | 0.0 | 1.6 | 0.00 | 2.08 | 1.55 | 1011.1 | |
| 20260905220012 | -17 | 138 | 0.0 | 3.2 | 0.00 | 2.08 | 1.55 | 1011.0 | |
| 20260905215509 | -17 | 98 | 0.0 | 3.2 | 0.00 | 2.08 | 1.55 | 1011.2 | |
| 20260905215010 | -17 | 170 | 0.0 | 1.6 | 0.00 | 2.08 | 1.55 | 1011.2 | |
| 20260905214508 | -17 | 103 | 0.0 | 1.6 | 0.00 | 2.08 | 1.55 | 1011.2 | |
| 20260905214008 | -17 | 123 | 0.0 | 1.6 | 0.00 | 2.08 | 1.55 | 1011.2 | |
| 20260905213508 | -17 | 92 | 0.0 | 1.6 | 0.00 | 2.08 | 1.55 | 1011.2 | |
| 20260905213009 | -17 | 134 | 0.0 | 3.2 | 0.00 | 2.08 | 1.55 | 1011.3 | |
| 20260905212508 | -17 | 134 | 0.0 | 3.2 | 0.00 | 2.08 | 1.55 | 1011.3 | |
| 20260905212007 | -17 | 135 | 0.0 | 3.2 | 0.00 | 2.08 | 1.55 | 1011.2 | |
| 20260905211507 | -17 | 142 | 1.6 | 3.2 | 0.00 | 2.08 | 1.55 | 1011.1 | |
| 20260905211007 | -17 | 136 | 0.0 | 1.6 | 0.00 | 2.08 | 1.55 | 1011.3 | |
| 20260905210509 | -17 | 88 | 0.0 | 1.6 | 0.00 | 2.08 | 1.55 | 1011.3 | |
| 20260905210006 | -17 | 109 | 0.0 | 3.2 | 0.00 | 2.08 | 1.55 | 1011.4 | |
| 20260905205505 | -17 | 109 | 0.0 | 3.2 | 0.00 | 2.08 | 1.55 | 1011.4 | |
| 20260905205006 | -17 | 121 | 1.6 | 3.2 | 0.00 | 2.08 | 1.55 | 1011.4 | |
| 20260905204508 | -17 | 107 | 1.6 | 3.2 | 0.00 | 2.08 | 1.55 | 1011.4 | |
| 20260905204005 | -17 | 84 | 0.0 | 1.6 | 0.00 | 2.08 | 1.55 | 1011.3 | |
| 20260905203505 | -17 | 101 | 0.0 | 3.2 | 0.00 | 2.08 | 1.55 | 1011.2 | |
| 20260905203005 | -17 | 101 | 0.0 | 3.2 | 0.00 | 2.08 | 1.55 | 1011.3 | |
| 20260905202508 | -17 | 122 | 1.6 | 3.2 | 0.00 | 2.08 | 1.55 | 1011.3 | |
| 20260905202005 | -17 | 123 | 1.6 | 3.2 | 0.00 | 2.08 | 1.55 | 1011.3 | |
| 20260905201508 | -17 | 115 | 0.0 | 1.6 | 0.00 | 2.08 | 1.55 | 1011.4 | |
| 20260905201006 | -17 | 125 | 0.0 | 1.6 | 0.03 | 2.08 | 1.55 | 1011.4 | |
| 20260905200506 | -17 | 125 | 0.0 | 3.2 | 0.05 | 2.08 | 1.55 | 1011.4 | |
| 20260905200005 | -17 | 96 | 0.0 | 3.2 | 0.05 | 2.08 | 1.55 | 1011.2 | |
| 20260905195504 | -17 | 5 | 0.0 | 3.2 | 0.05 | 2.08 | 1.55 | 1011.4 | |
| 20260905195006 | -17 | 90 | 0.0 | 1.6 | 0.08 | 2.08 | 1.55 | 1011.5 | |
| 20260905194504 | -17 | 103 | 0.0 | 1.6 | 0.08 | 2.08 | 1.55 | 1011.5 | |
| 20260905194003 | -17 | 103 | 0.0 | 1.6 | 0.08 | 2.08 | 1.55 | 1011.5 | |
| 20260905193503 | -17 | 103 | 0.0 | 3.2 | 0.13 | 2.08 | 1.55 | 1011.7 | |
| 20260905193007 | -17 | 96 | 0.0 | 3.2 | 0.13 | 2.08 | 1.55 | 1011.4 | |
| 20260905192503 | -17 | 123 | 0.0 | 3.2 | 0.13 | 2.08 | 1.55 | 1011.4 | |
| 20260905192004 | -17 | 126 | 1.6 | 3.2 | 0.13 | 2.08 | 1.55 | 1011.3 | |
| 20260905191504 | -17 | 132 | 0.0 | 0.0 | 0.13 | 2.08 | 1.55 | 1011.8 | |
| 20260905191004 | -17 | 132 | 0.0 | 3.2 | 0.10 | 2.06 | 1.52 | 1012.0 | |
| 20260905190502 | -17 | 132 | 0.0 | 3.2 | 0.08 | 2.03 | 1.50 | 1012.1 | |
| 20260905190004 | -17 | 21 | 0.0 | 3.2 | 0.08 | 2.03 | 1.50 | 1012.4 | |
| 20260905185502 | -17 | 126 | 1.6 | 3.2 | 0.05 | 2.01 | 1.45 | 1012.3 | |
| 20260905185001 | -17 | 360 | 0.0 | 0.0 | 0.05 | 2.01 | 1.45 | 1012.7 | |
| 20260905184505 | -17 | 360 | 0.0 | 3.2 | 0.05 | 2.01 | 1.45 | 1012.1 | |
| 20260905184001 | -17 | 360 | 1.6 | 3.2 | 0.03 | 1.98 | 1.42 | 1012.2 | |
| 20260905183601 | -17 | 11 | 0.0 | 3.2 | 0.00 | 1.96 | 1.42 | 1011.9 | |
| 20260905183002 | -17 | 350 | 0.0 | 3.2 | 0.00 | 1.96 | 1.42 | 1011.9 | |
| 20260905182502 | -17 | 108 | 0.0 | 4.8 | 0.00 | 1.96 | 1.42 | 1011.9 | |
| 20260905182101 | -17 | 123 | 0.0 | 4.8 | 0.00 | 1.96 | 1.42 | 1012.0 | |
| 20260905181601 | -17 | 116 | 0.0 | 3.2 | 0.00 | 1.96 | 1.42 | 1012.0 | |
| 20260905181058 | -17 | 23 | 0.0 | 4.8 | 0.00 | 1.96 | 1.42 | 1012.1 | |
| 20260905180556 | -17 | 81 | 0.0 | 4.8 | 0.00 | 1.96 | 1.42 | 1012.0 | |
| 20260905180055 | -17 | 349 | 0.0 | 4.8 | 0.03 | 1.96 | 1.42 | 1012.3 | |
| 20260905175553 | -17 | 134 | 0.0 | 0.0 | 0.08 | 1.96 | 1.42 | 1012.4 | |
| 20260905175052 | -17 | 130 | 0.0 | 3.2 | 0.13 | 1.96 | 1.42 | 1012.5 |